Location: *
(34.8620°S, 39.3380°E)
Time: 08:02:20
(UTC+00:00)

SMAP - Pass Details

Date: 27 July 2021
Orbit: 681 x 683 km, 98.1° (Epoch: 22 September)

Event Time Altitude Azimuth Distance (km) Brightness Sun altitude
Rises 03:21:20 0° 357° (N) 3,031 6.6 -12.4°
Reaches altitude 10° 03:23:39 10° 350° (N) 2,125 5.7 -11.9°
Maximum altitude 03:28:03 42° 279° (W) 986 3.5 -11.1°
Drops below altitude 10° 03:32:31 10° 208° (SSW) 2,152 5.2 -10.2°
Sets 03:34:53 0° 200° (SSW) 3,076 6.1 -9.7°
